Retour au catalogue

COSMOS 970 DEB

ActifLEO
NORAD 18494·DEBRIS·🇷🇺 Russia

Lancé Dec 21, 1977 depuis Baikonur Cosmodrome

Loading…

Prochains Passages (prochaines 24 heures)

TLE

FraisSource: Space-Track

Époque: Sep 14, 2026, 15:26 UTC

1 18494U 77121BQ  26257.64349061  .00000106  00000-0  22887-3 0  9996
2 18494  65.8225 333.1001 0125127 274.9606 236.0427 13.61450941879652

Suivez COSMOS 970 DEB en temps réel avec AllMySat

Download on the App Store